Погода в Виамане

Бразилия     30°05′18″S   51°01′24″W
темп.,
°C
ветер,
м/с
пор.,
м/с
влажн.,
%
обл.,
%
осадки,
мм/ч
давл.,
гПа
погр.,
м
7 августа, вс
вс700:00+11вюв3888100 0.3 1018348
03:00+11вюв3896100 2.4 1018365
06:00+12в2694100 0.0 1017297
09:00+13вюв269396 0.1 1019394
12:00+16вюв4783100 0.1 1018802
15:00+15юв51086100 0.2 1016752
18:00+14юв41188100 0.0 1017654
21:00+14юв3992100 0.4 1019661
8 августа, пн
пн800:00+14вюв3996100 1.8 1018587
03:00+14вюв3997100 2.5 1018636
06:00+14юв41095100 0.1 1019805
09:00+14юв41092100 0.2 1022725
12:00+14юв4991100 0.2 1023694
15:00+15вюв4108799 0.2 1021766
18:00+14вюв51190100 0.1 1022864
21:00+14вюв51186100 0.1 1023888
9 августа, вт
вт900:00+14вюв41183100 0.0 1023891
03:00+14вюв41082100 0.0 1022923
06:00+13вюв51294100 2.3 1022820
09:00+13вюв61295100 6.5 1023837
12:00+13юв51296100 6.0 1023923
15:00+13юв61295100 10.1 1022839
18:00+12юв51195100 3.6 1023835
21:00+12вюв41196100 8.6 1024644
10 августа, ср
ср1000:00+12юв41095100 4.3 1024809
03:00+12ююв2993100 4.8 1023541
06:00+12ююв3995100 1.7 1022484
09:00+13ююв3892100 2.1 1024454
12:00+16вюв487974 2.8 10251088
15:00+18вюв47570 3.3 10241566
18:00+14вюв38760 0.0 1024394
21:00+12вюв28852 0.0 1026279
11 августа, чт
чт1100:00+11в26890 0.0 1026173
03:00+10вюв1390100 0.0 102580
06:00+10в138893 0.0 102572
09:00+13всв24755 0.0 1026254
12:00+18всв35563 0.0 10261208
15:00+19в345123 0.0 10231442
18:00+15вюв49737 0.0 1023418
21:00+13в387834 0.0 1023265